"Pseudo-MPEC" for W04057

Created 2023 Dec 2 1:22:08 UT using Find_Orb

Click here for an explanation of pseudo-MPECs

 
 Astrometry: 
     W04057 * C2023 11 15!:=e6E2^_w,n-Xcq)]+y60E\P#%@Yt7D06Vfto=ZcKlKd0bIcx3/O18
     W04057   C2023 11 15[K8wEqq\;(sLHGAfAstrometry(_7teb8O$;9O7GMPDrG.=x'iF)O18
     W04057   C2023 11 15d21II_5exim1Fv37redacted;Cclick:gh2i*u`\)(+m;p=V,^.$O18
     W04057   C2023 11 17'U6'R#?u`=*O!%i]\r@g@here[87SHC70!se7q;?m3Zd=cfCS#%%O18
     W04057   C2023 11 17CFEX^\2for`Y#p[P6LQ-AJTT^?rH_;!t`@LrY.^?Bj#lOw3qhK`aO18
     W04057   C2023 11 17C.8/26-uf$Y_FO)IB/S?wJA?O\MjeTvRDy_explanation`N%ae7O18

Station data:
(O18) WFST, Lenghu  (N38.607601 E93.895220).

Orbital elements:  W04057
   Perihelion 2024 Jan 26.33562 +/- 6.87 TT =  8:03:17 (JD 2460335.83562)
Epoch 2023 Nov 17.0 TT = JDT 2460265.5   Earth MOID: 0.0126   Ve: 0.0020
M 306.20893429 +/- 13               Ma: 0.0689                   AutoNEOCP
n   0.76477706 +/- 0.125            Peri.  293.88498 +/- 0.32
a   1.18425750 +/- 0.129            Node   239.12959 +/- 0.20
e   0.5349046 +/- 0.105             Incl.    5.09810 +/- 1.0
P   1.29/470.72d           H 24.39  G  0.15   U 11.3
q 0.55079262 +/- 0.0647    Q 1.81772238 +/- 0.322         (J2000 ecliptic)
From 6 observations 2023 Nov. 15-17; mean residual 0".09
Residuals in arcseconds: 
231115 O18  .05+  .03-    231115 O18  .07-  .06+    231117 O18  .17-  .06+    
231115 O18  .02+  .03-    231117 O18  .01+  .08+    231117 O18  .15+  .14-    

Ephemerides (geocentric):
Date (UTC) HH   RA             Dec           delta  r     elong  mag " sig PA
---- --------  ------------   ------------  ------ ------ -----  --- --------
2023 12 02 01  22 47 58.442   -41 23 46.79  .02603 .98135  78.9 20.0 414'  67
2023 12 02 02  22 44 03.016   -41 41 48.26  .02618 .98095  78.1 20.1 412'  68
2023 12 02 03  22 40 08.062   -41 59 07.90  .02633 .98055  77.3 20.1 409'  69
2023 12 02 04  22 36 13.716   -42 15 45.96  .02648 .98015  76.5 20.2 406'  69
2023 12 02 05  22 32 20.111   -42 31 42.77  .02664 .97974  75.7 20.2 402'  70
2023 12 02 06  22 28 27.376   -42 46 58.73  .02680 .97934  74.9 20.3 399'  71
2023 12 02 07  22 24 35.638   -43 01 34.30  .02697 .97894  74.1 20.3 396'  71
2023 12 02 08  22 20 45.022   -43 15 30.00  .02714 .97853  73.3 20.4 393'  72
2023 12 02 09  22 16 55.646   -43 28 46.41  .02732 .97813  72.6 20.5 389'  73
2023 12 02 10  22 13 07.628   -43 41 24.16  .02750 .97773  71.8 20.5 386'  73
2023 12 02 11  22 09 21.077   -43 53 23.91  .02769 .97732  71.1 20.6 382'  74
2023 12 02 12  22 05 36.103   -44 04 46.40  .02788 .97692  70.3 20.6 379'  75
2023 12 02 13  22 01 52.806   -44 15 32.36  .02807 .97651  69.6 20.7 375'  75
2023 12 02 14  21 58 11.283   -44 25 42.61  .02827 .97611  68.9 20.7 372'  76
2023 12 02 15  21 54 31.627   -44 35 17.94  .02847 .97571  68.2 20.8 368'  76
2023 12 02 16  21 50 53.924   -44 44 19.22  .02868 .97530  67.5 20.8 364'  77
2023 12 02 17  21 47 18.255   -44 52 47.30  .02888 .97490  66.8 20.9 361'  78
2023 12 02 18  21 43 44.695   -45 00 43.07  .02910 .97449  66.1 21.0 357'  78
2023 12 02 19  21 40 13.315   -45 08 07.43  .02931 .97409  65.4 21.0 353'  79
2023 12 02 20  21 36 44.180   -45 15 01.28  .02953 .97369  64.8 21.1 350'  80
2023 12 02 21  21 33 17.347   -45 21 25.55  .02976 .97328  64.1 21.1 346'  80
2023 12 02 22  21 29 52.872   -45 27 21.16  .02999 .97288  63.5 21.2 343'  81
2023 12 02 23  21 26 30.801   -45 32 49.01  .03022 .97247  62.9 21.3 339'  81
2023 12 03 00  21 23 11.178   -45 37 50.05  .03045 .97207  62.2 21.3 335'  82
2023 12 03 01  21 19 54.041   -45 42 25.17  .03069 .97166  61.6 21.4 332'  83
2023 12 03 02  21 16 39.422   -45 46 35.29  .03093 .97126  61.0 21.4 328'  83
2023 12 03 03  21 13 27.350   -45 50 21.32  .03117 .97085  60.4 21.5 324'  84
2023 12 03 04  21 10 17.847   -45 53 44.13  .03142 .97045  59.8 21.5 321'  84
2023 12 03 05  21 07 10.933   -45 56 44.61  .03166 .97005  59.3 21.6 317'  85
2023 12 03 06  21 04 06.622   -45 59 23.63  .03192 .96964  58.7 21.7 314'  85
2023 12 03 07  21 01 04.923   -46 01 42.02  .03217 .96924  58.1 21?? 310'  86
2023 12 03 08  20 58 05.845   -46 03 40.63  .03243 .96883  57.6 21?? 307'  86
2023 12 03 09  20 55 09.388   -46 05 20.26  .03269 .96842  57.0 21?? 304'  87
2023 12 03 10  20 52 15.552   -46 06 41.72  .03295 .96802  56.5 21?? 300'  88
2023 12 03 11  20 49 24.334   -46 07 45.77  .03321 .96761  56.0 22?? 297'  88
2023 12 03 12  20 46 35.725   -46 08 33.19  .03348 .96721  55.5 22?? 294'  89
2023 12 03 13  20 43 49.716   -46 09 04.70  .03375 .96680  54.9 22?? 290'  89
2023 12 03 14  20 41 06.294   -46 09 21.03  .03402 .96640  54.4 22?? 287'  90
2023 12 03 15  20 38 25.443   -46 09 22.86  .03429 .96599  53.9 22?? 284'  90
2023 12 03 16  20 35 47.145   -46 09 10.88  .03457 .96559  53.5 22?? 281'  91
2023 12 03 17  20 33 11.382   -46 08 45.73  .03485 .96518  53.0 22?? 278'  91
2023 12 03 18  20 30 38.130   -46 08 08.05  .03513 .96478  52.5 22?? 275'  91
2023 12 03 19  20 28 07.366   -46 07 18.46  .03541 .96437  52.0 22?? 271'  92
2023 12 03 20  20 25 39.066   -46 06 17.53  .03570 .96396  51.6 22?? 268'  92
2023 12 03 21  20 23 13.202   -46 05 05.85  .03598 .96356  51.1 22?? 265'  93
2023 12 03 22  20 20 49.746   -46 03 43.96  .03627 .96315  50.7 22?? 263'  93
2023 12 03 23  20 18 28.670   -46 02 12.40  .03656 .96275  50.2 22?? 260'  94
2023 12 04 00  20 16 09.943   -46 00 31.66  .03685 .96234  49.8 22?? 257'  94